7 * 24
多渠道服务支持
TIANQI-14 是一颗由中国发射的气象卫星,主要用于天气监测和气象数据收集。该卫星属于天基观测系统的一部分,具备高分辨率成像和实时数据传输能力,能够提供更精准的天气预报和气候分析。TIANQI-14 的成功发射提升了中国在气象领域的自主观测能力,对防灾减灾、农业规划和环境监测具有重要意义。
中国
(CN)
| 数据来源 | 国际轨道数据 |
| 星历时间: | 2025-12-15T03:35:32+0800 23小时前 查看轨道信息 |
| 半长轴: | 6911.731km |
| 偏心率: | 0.0004882 |
| 轨道倾角: | 34.998° |
| 近地点辐角 | 114.556° |
| 升交点赤经 | 139.145° |
| 平近点角 | 245.566° |
| 近地点: | 530.221km |
| 远地点: | 536.971km |
| 周期: | 95.310分钟 |
| 每日圈数: | 15.108541 |